Station TPLM2 - Thomas Point, MD Image indicating link to RSS feed of recent meteorological observations for station TPLM2


Conditions at TPLM2 as of
(12:00 pm EDT)
1600 GMT on 05/22/2024:
     

Click on the graph icon in the table below to see a time series plot of the last five days of that observation.

5-day plot - Wind Direction Wind Direction (WDIR): SE ( 140 deg true )
5-day plot - Wind Speed Wind Speed (WSPD): 8 kts
5-day plot - Wind Gust Wind Gust (GST): 9 kts
5-day plot - Atmospheric Pressure Atmospheric Pressure (PRES):30.00 in
5-day plot - Pressure Tendency Pressure Tendency (PTDY):-0.03 in ( Falling )
5-day plot - Air Temperature Air Temperature (ATMP): 70.3 °F
5-day plot - Wind Speed at 10 Meters Wind Speed at 10 meters (WSPD10M): 8 kts
5-day plot - Wind Speed at 20 Meters Wind Speed at 20 meters (WSPD20M): 8 kts
5-day plot -  Wind Speed, Wind Gust and Atmospheric Pressure Combined plot of Wind Speed, Gust, and Air Pressure
Continuous Winds
TIME
(EDT)
5-day plot - Wind Direction WDIR 5-day plot - Wind Speed WSPD
12:00 pmSE ( 137 deg ) 8 kts
11:50 amSE ( 137 deg ) 8 kts
11:40 amSE ( 138 deg ) 8 kts
11:30 amSE ( 135 deg ) 7 kts
11:20 amSE ( 133 deg ) 7 kts
11:10 amSE ( 131 deg ) 8 kts
 
Peak gust during the measurement hour
TIME
(EDT)
5-day plot - Gust Direction GDR 5-day plot - Gust Speed GST
11:47 amSE ( 140 deg ) 9 kts
Previous observations
TIME
(EDT)
5-day plot - Wind Direction
WDIR
 
5-day plot - Wind Speed
WSPD
kts
5-day plot - Wind Gust
GST
kts
5-day plot - Wave Height
WVHT
ft
5-day plot - Dominant Wave Period
DPD
sec
5-day plot - Average Wave Period
APD
sec
5-day plot - Mean Wave Direction
MWD
 
5-day plot - Atmospheric Pressure
PRES
in
5-day plot - Pressure Tendency
PTDY
in
5-day plot - Air Temperature
ATMP
°F
5-day plot - Water Temperature
WTMP
°F
5-day plot - Dew Point
DEWP
°F
5-day plot - Salinity
SAL
psu
5-day plot - Visibility
VIS
nmi
5-day plot - Tide (above MLLW)
TIDE
ft
2024-05-22 11:00 am SE 8 8----30.02-0.01 69.1-----
2024-05-22 10:00 am SE 12 14----30.02+0.00 67.8-----
2024-05-22 09:00 am SE 11 12----30.03+0.02 67.3-----
2024-05-22 08:00 amSSE 11 13----30.03+0.03 66.9-----
2024-05-22 07:00 am SE 11 12----30.01+0.00 66.7-----
2024-05-22 06:00 amSSE 12 13----30.01+0.00 66.2-----
2024-05-22 05:00 amSSE 10 11----30.01-0.01 66.2-----
2024-05-22 04:00 amSSE 12 13----30.02+0.02 66.2-----
2024-05-22 03:00 amSSE 9 10----30.01+0.00 66.2-----
2024-05-22 02:00 amSSE 16 18----30.02+0.00 66.4-----
2024-05-22 01:00 amSSE 16 18----30.00-0.01 67.1-----
2024-05-22 12:00 amSSE 15 17----30.01+0.02 67.8-----
2024-05-21 11:00 pmSSE 15 17----30.02+0.02 68.4-----
2024-05-21 10:00 pmSSE 15 16----30.01+0.01 68.7-----
2024-05-21 09:00 pmSSE 16 18----29.99-0.02 69.8-----
2024-05-21 08:00 pmSSE 14 14----30.00+0.01 70.2-----
2024-05-21 07:00 pm SE 13 14----30.00+0.00 70.7-----
2024-05-21 06:00 pmSSE 12 13----30.01+0.00 71.2-----
2024-05-21 05:00 pm SE 14 15----29.99-0.05 71.2-----
2024-05-21 04:00 pmSSE 11 12----30.01-0.04 71.2-----
2024-05-21 03:00 pm SE 12 12----30.01-0.04 70.3-----
2024-05-21 02:00 pm SE 9 9----30.04-0.03 69.8-----
2024-05-21 01:00 pm SE 8 9----30.05-0.02 67.6-----
2024-05-21 12:00 pm SE 8 8----30.06-0.01 65.7-----